When you browse on this site, cookies collect data to enhance your experience and personalize the content and advertising you see.
Visit our Privacy Policy to learn more. By continuing to use the site, you agree to this use of cookies and data.
  • In Schweiz
  • Länderverzeichnis
  • Für 7 Tage
  • Wassertemperatur
  • Satellitenkarten
  • Wetterkarte
  • Widgets
  • user-avatar
    Anmelden

    Stündliche Wetter Prutz

    Heute, 23 März, Samstag

    Zeit Temperatur Niederschläge Wind Luftdruck Luftfeuchtigkeit
    00:00 +2°C° 0 mm 1 m/S 638 mmHg 63%
    01:00 +3°C° 0 mm 1 m/S 638 mmHg 56%
    02:00 +2°C° 0 mm 1 m/S 638 mmHg 57%
    03:00 +2°C° 0 mm 1 m/S 638 mmHg 58%
    04:00 +1°C° 0 mm 1 m/S 637 mmHg 60%
    05:00 +2°C° 0 mm 1 m/S 637 mmHg 60%
    06:00 +2°C° 0 mm 1 m/S 637 mmHg 61%
    07:00 +2°C° 0 mm 1 m/S 638 mmHg 61%
    08:00 +4°C° 0 mm 1 m/S 638 mmHg 67%
    09:00 +6°C° 0 mm 1 m/S 638 mmHg 74%
    10:00 +8°C° 0 mm 1 m/S 639 mmHg 80%
    11:00 +8°C° 0 mm 0 m/S 639 mmHg 79%
    12:00 +8°C° 0 mm 0 m/S 639 mmHg 77%
    13:00 +9°C° 0 mm 0 m/S 638 mmHg 76%
    14:00 +9°C° 0 mm 1 m/S 638 mmHg 78%
    15:00 +9°C° 0 mm 1 m/S 638 mmHg 80%
    16:00 +9°C° 0 mm 1 m/S 638 mmHg 82%
    17:00 +7°C° 0 mm 1 m/S 637 mmHg 84%
    18:00 +5°C° 0 mm 1 m/S 637 mmHg 86%
    19:00 +2°C° 0 mm 0 m/S 636 mmHg 88%
    20:00 +3°C° 0 mm 1 m/S 636 mmHg 86%
    21:00 +2°C° 0 mm 1 m/S 636 mmHg 85%
    22:00 +2°C° 0 mm 1 m/S 637 mmHg 83%
    23:00 +2°C° 0 mm 1 m/S 637 mmHg 79%

    Morgen, 24 März, Sonntag

    Zeit Temperatur Niederschläge Wind Luftdruck Luftfeuchtigkeit
    00:00 +1°C° 0 mm 2 m/S 637 mmHg 75%
    01:00 +1°C° 0 mm 2 m/S 637 mmHg 70%
    02:00 +1°C° 0 mm 2 m/S 636 mmHg 68%
    03:00 +1°C° 0 mm 2 m/S 636 mmHg 65%
    04:00 +1°C° 0 mm 2 m/S 636 mmHg 62%
    05:00 +1°C° 0 mm 2 m/S 636 mmHg 61%
    06:00 +1°C° 0 mm 2 m/S 636 mmHg 61%
    07:00 +1°C° 0 mm 2 m/S 636 mmHg 60%
    08:00 +3°C° 0 mm 2 m/S 636 mmHg 65%
    09:00 +6°C° 0 mm 1 m/S 637 mmHg 70%
    10:00 +9°C° 0 mm 1 m/S 637 mmHg 75%
    11:00 +9°C° 0 mm 1 m/S 637 mmHg 75%
    12:00 +9°C° 0 mm 1 m/S 637 mmHg 75%
    13:00 +10°C° 0 mm 1 m/S 636 mmHg 75%
    14:00 +9°C° 0 mm 1 m/S 636 mmHg 77%
    15:00 +9°C° 0 mm 1 m/S 635 mmHg 79%
    16:00 +9°C° 0 mm 1 m/S 635 mmHg 80%
    17:00 +7°C° 0 mm 1 m/S 634 mmHg 85%
    18:00 +5°C° 0 mm 1 m/S 634 mmHg 90%
    19:00 +3°C° 0 mm 1 m/S 633 mmHg 95%
    20:00 +3°C° 0 mm 1 m/S 634 mmHg 95%
    21:00 +2°C° 0 mm 1 m/S 634 mmHg 95%
    22:00 +2°C° 0 mm 1 m/S 634 mmHg 95%
    23:00 +2°C° 0 mm 1 m/S 634 mmHg 95%

    übermorgen, 25 März, Montag

    Zeit Temperatur Niederschläge Wind Luftdruck Luftfeuchtigkeit
    00:00 +2°C° 0 mm 1 m/S 634 mmHg 94%
    01:00 +2°C° 0 mm 1 m/S 634 mmHg 94%
    02:00 +2°C° 0 mm 1 m/S 633 mmHg 94%
    03:00 +2°C° 0 mm 1 m/S 633 mmHg 94%
    04:00 +1°C° 0 mm 1 m/S 633 mmHg 94%
    05:00 +2°C° 0 mm 1 m/S 633 mmHg 94%
    06:00 +2°C° 0 mm 1 m/S 633 mmHg 94%
    07:00 +2°C° 0 mm 1 m/S 633 mmHg 94%
    08:00 +2°C° 0.1 mm 2 m/S 633 mmHg 91%
    09:00 +3°C° 0.1 mm 2 m/S 633 mmHg 89%
    10:00 +4°C° 0.1 mm 2 m/S 633 mmHg 86%
    11:00 +4°C° 0.1 mm 2 m/S 633 mmHg 85%
    12:00 +3°C° 0.1 mm 3 m/S 633 mmHg 85%
    13:00 +3°C° 0.1 mm 3 m/S 633 mmHg 84%
    14:00 +3°C° 0.2 mm 3 m/S 632 mmHg 84%
    15:00 +2°C° 0.2 mm 3 m/S 632 mmHg 84%
    16:00 +2°C° 0.2 mm 3 m/S 632 mmHg 84%
    17:00 -1°C° 0.5 mm 4 m/S 632 mmHg 88%
    18:00 -2°C° 0.5 mm 4 m/S 632 mmHg 91%
    19:00 -4°C° 0.5 mm 4 m/S 632 mmHg 94%
    20:00 -4°C° 0.6 mm 4 m/S 633 mmHg 94%
    21:00 -5°C° 0.6 mm 4 m/S 633 mmHg 94%
    22:00 -7°C° 0.6 mm 4 m/S 633 mmHg 94%
    23:00 -7°C° 0.1 mm 3 m/S 634 mmHg 94%

    26 März, Dienstag

    Zeit Temperatur Niederschläge Wind Luftdruck Luftfeuchtigkeit
    00:00 -8°C° 0.1 mm 3 m/S 634 mmHg 94%
    01:00 -7°C° 0.1 mm 2 m/S 634 mmHg 94%
    02:00 -8°C° 0 mm 2 m/S 634 mmHg 93%
    03:00 -8°C° 0 mm 2 m/S 634 mmHg 92%
    04:00 -9°C° 0 mm 2 m/S 634 mmHg 91%
    05:00 -9°C° 0 mm 2 m/S 635 mmHg 90%
    06:00 -9°C° 0 mm 2 m/S 635 mmHg 89%
    07:00 -8°C° 0 mm 2 m/S 636 mmHg 87%
    08:00 -7°C° 0 mm 2 m/S 636 mmHg 81%
    09:00 -6°C° 0 mm 3 m/S 637 mmHg 75%
    10:00 -5°C° 0 mm 3 m/S 638 mmHg 70%
    11:00 -4°C° 0 mm 3 m/S 638 mmHg 68%
    12:00 -2°C° 0 mm 3 m/S 637 mmHg 66%
    13:00 -2°C° 0 mm 3 m/S 637 mmHg 64%
    14:00 -2°C° 0 mm 3 m/S 637 mmHg 65%
    15:00 -2°C° 0 mm 3 m/S 637 mmHg 66%
    16:00 -2°C° 0 mm 3 m/S 637 mmHg 66%
    17:00 -3°C° 0 mm 2 m/S 637 mmHg 74%
    18:00 -5°C° 0 mm 2 m/S 636 mmHg 82%
    19:00 -4°C° 0 mm 1 m/S 636 mmHg 90%
    20:00 -6°C° 0 mm 1 m/S 637 mmHg 90%
    21:00 -6°C° 0 mm 1 m/S 637 mmHg 89%
    22:00 -6°C° 0 mm 1 m/S 637 mmHg 89%
    23:00 -7°C° 0 mm 1 m/S 637 mmHg 84%

    27 März, Mittwoch

    Zeit Temperatur Niederschläge Wind Luftdruck Luftfeuchtigkeit
    00:00 -7°C° 0 mm 1 m/S 637 mmHg 80%
    01:00 -7°C° 0 mm 1 m/S 637 mmHg 75%
    02:00 -7°C° 0 mm 1 m/S 637 mmHg 69%
    03:00 -7°C° 0 mm 1 m/S 636 mmHg 64%
    04:00 -7°C° 0 mm 1 m/S 636 mmHg 58%
    05:00 -7°C° 0 mm 1 m/S 636 mmHg 56%
    06:00 -6°C° 0 mm 1 m/S 637 mmHg 53%
    07:00 -6°C° 0 mm 1 m/S 637 mmHg 51%
    08:00 -2°C° 0 mm 1 m/S 637 mmHg 49%
    09:00 -2°C° 0 mm 2 m/S 638 mmHg 47%
    10:00 +1°C° 0 mm 2 m/S 638 mmHg 46%
    11:00 +2°C° 0 mm 2 m/S 638 mmHg 50%
    12:00 +2°C° 0 mm 2 m/S 638 mmHg 54%
    13:00 +2°C° 0 mm 3 m/S 638 mmHg 58%
    14:00 +2°C° 0 mm 3 m/S 638 mmHg 62%
    15:00 +1°C° 0 mm 3 m/S 638 mmHg 65%
    16:00 +1°C° 0 mm 3 m/S 637 mmHg 69%
    17:00 +1°C° 0.1 mm 2 m/S 637 mmHg 76%
    18:00 -1°C° 0.1 mm 2 m/S 637 mmHg 84%
    19:00 -2°C° 0.1 mm 2 m/S 637 mmHg 92%
    20:00 0°C° 0.1 mm 1 m/S 638 mmHg 93%
    21:00 -1°C° 0.1 mm 1 m/S 638 mmHg 94%
    22:00 -1°C° 0.1 mm 1 m/S 638 mmHg 94%
    23:00 -1°C° 0 mm 1 m/S 638 mmHg 94%

    28 März, Donnerstag

    Zeit Temperatur Niederschläge Wind Luftdruck Luftfeuchtigkeit
    00:00 -2°C° 0 mm 1 m/S 638 mmHg 93%
    01:00 -2°C° 0 mm 1 m/S 638 mmHg 92%
    02:00 -2°C° 0 mm 1 m/S 638 mmHg 91%
    03:00 -2°C° 0 mm 1 m/S 637 mmHg 90%
    04:00 -3°C° 0 mm 1 m/S 637 mmHg 89%
    05:00 -2°C° 0 mm 1 m/S 637 mmHg 87%
    06:00 -2°C° 0 mm 1 m/S 638 mmHg 86%
    07:00 -2°C° 0 mm 1 m/S 638 mmHg 85%
    08:00 0°C° 0 mm 1 m/S 638 mmHg 81%
    09:00 -1°C° 0 mm 2 m/S 639 mmHg 77%
    10:00 +2°C° 0 mm 2 m/S 639 mmHg 73%
    11:00 +3°C° 0 mm 2 m/S 639 mmHg 71%
    12:00 +3°C° 0 mm 2 m/S 639 mmHg 69%
    13:00 +4°C° 0 mm 2 m/S 639 mmHg 67%
    14:00 +4°C° 0 mm 2 m/S 639 mmHg 68%
    15:00 +4°C° 0 mm 2 m/S 639 mmHg 69%
    16:00 +4°C° 0 mm 2 m/S 638 mmHg 70%
    17:00 +3°C° 0 mm 2 m/S 638 mmHg 77%
    18:00 +2°C° 0 mm 1 m/S 638 mmHg 84%
    19:00 0°C° 0 mm 1 m/S 638 mmHg 92%
    20:00 0°C° 0 mm 1 m/S 638 mmHg 90%
    21:00 0°C° 0 mm 1 m/S 638 mmHg 89%
    22:00 -1°C° 0 mm 1 m/S 639 mmHg 87%
    23:00 -1°C° 0 mm 1 m/S 639 mmHg 85%
    Mehr zeigen